Location: Ostrava
(49.8330°N, 18.2830°E)
Time: 10:22:57
(UTC+02:00)

Cosmos 2219 Rocket - Visible Passes

Search period start: 25 April 2018 00:00
Search period end: 05 May 2018 00:00
Orbit: 828 x 846 km, 71.0° (Epoch: 24 April)

Date Brightness Start Highest point End Pass type
(mag) Time Alt. Az. Time Alt. Az. Time Alt. Az.
25 Apr 4.8 03:21:00 10° NNW 03:25:23 23° NE 03:29:44 10° E visible
25 Apr 4.7 21:44:45 10° W 21:49:21 25° NW 21:53:56 10° NNE visible
26 Apr 4.8 03:04:40 10° N 03:08:56 22° NE 03:13:11 10° E visible
26 Apr 2.3 04:48:05 10° NNW 04:53:45 86° ENE 04:59:20 10° SSE visible
26 Apr 4.6 21:28:14 10° W 21:32:55 26° NW 21:37:36 10° NNE visible
27 Apr 4.8 02:48:20 10° N 02:52:30 21° NE 02:56:39 10° E visible
27 Apr 2.3 04:31:43 10° NNW 04:37:22 81° ENE 04:42:58 10° SSE visible
27 Apr 4.6 21:11:44 10° WSW 21:16:29 27° NW 21:21:16 10° NNE visible
27 Apr 5.7 23:02:28 10° NNW 23:02:35 10° NNW 23:02:41 10° NNW visible
28 Apr 4.9 02:32:01 10° N 02:36:04 20° NE 02:40:06 10° E visible
28 Apr 2.4 04:15:21 10° NNW 04:21:00 77° ENE 04:26:35 10° SSE visible
28 Apr 4.5 20:55:13 10° WSW 21:00:04 28° NW 21:04:55 10° NNE visible
28 Apr 5.6 22:45:14 10° NNW 22:46:06 10° NNW 22:46:57 10° N visible
29 Apr 4.9 02:15:41 10° N 02:19:37 19° NE 02:23:31 10° E visible
29 Apr 2.5 03:58:59 10° NNW 04:04:37 72° ENE 04:10:11 10° SE visible
29 Apr 4.5 20:38:44 10° WSW 20:43:39 30° NW 20:48:35 10° NNE visible
29 Apr 5.6 22:28:24 10° NNW 22:29:37 11° NNW 22:30:51 10° N visible
30 Apr 4.9 01:59:21 10° N 02:03:10 18° NE 02:06:58 10° ENE visible
30 Apr 2.6 03:42:37 10° NNW 03:48:14 68° ENE 03:53:47 10° SE visible
30 Apr 5.5 22:11:38 10° NW 22:13:08 11° NNW 22:14:40 10° N visible
01 May 4.9 01:43:03 10° N 01:46:43 17° NE 01:50:23 10° ENE visible
01 May 2.7 03:26:16 10° NNW 03:31:52 64° ENE 03:37:23 10° SE visible
01 May 5.4 21:54:54 10° NW 21:56:40 11° NNW 21:58:27 10° N visible
02 May 5.0 01:26:44 10° N 01:30:17 17° NNE 01:33:48 10° ENE visible
02 May 2.7 03:09:54 10° NNW 03:15:28 60° ENE 03:20:59 10° SE visible
02 May 5.3 21:38:12 10° NW 21:40:12 12° NNW 21:42:11 10° N visible
03 May 4.9 01:10:25 10° N 01:13:49 16° NNE 01:17:13 10° ENE visible
03 May 2.8 02:53:33 10° NNW 02:59:05 56° NE 03:04:34 10° SE visible
03 May 3.0 04:38:01 10° NW 04:42:43 28° WSW 04:47:22 10° SSW visible
03 May 5.3 21:21:31 10° NW 21:23:43 12° NNW 21:25:56 10° N visible
04 May 4.9 00:54:06 10° N 00:57:22 15° NNE 01:00:37 10° ENE visible
04 May 2.9 02:37:12 10° NNW 02:42:42 53° NE 02:48:08 10° SE visible
04 May 3.0 04:21:35 10° NW 04:26:23 30° WSW 04:31:09 10° SSW visible
04 May 5.2 21:04:52 10° NW 21:07:15 13° NNW 21:09:39 10° N visible
